Date String (YYYY-MM-DD hh:mm:ss) UTC,Instrument flags,Ambient pressure (hPa),Sample flow (lpm),Bypass flow (lpm),Sample temperature (°C),Ambient temperature (°C),ASC tube jacket temperature (°C),LED temperature (°C),Box temperature (°C),Sample RH (%),Span deviation,Mass concentration (μg/m³),Mass concentration (μg/m³),Mass concentration (μg/m³)
DateTimeUTC,F1_M11,P_M11,Q1_M11,Q2_M11,T1_M11,T2_M11,T3_M11,T4_M11,T5_M11,U1_M11,ZSPAN_M11,X0_M11,X2_M11,X1_M11
2021-10-21 22:00:00,,0831.2,4.99,0.00,27.6,27.0,00.0,36.5,29.4,10.6,0000.0,0010.86,0003.60,0002.51
2021-10-21 22:01:00,,0831.3,4.99,0.00,27.6,27.0,00.0,36.5,29.4,10.6,0000.0,0010.82,0003.56,0002.50
2021-10-21 22:02:00,,0831.2,5.02,0.00,27.6,27.0,00.0,36.5,29.4,10.4,0000.0,0010.82,0003.53,0002.49
2021-10-21 22:03:00,,0831.2,4.99,0.00,27.6,27.0,00.0,36.5,29.5,10.4,0000.0,0009.87,0003.57,0002.51
2021-10-21 22:04:00,,0831.2,5.01,0.00,27.6,27.0,00.0,36.5,29.5,10.5,0000.0,0009.60,0003.62,0002.54
2021-10-21 22:05:00,,0831.3,4.99,0.00,27.6,27.0,00.0,36.6,29.5,10.3,0000.0,0010.16,0003.67,0002.55
2021-10-21 22:06:00,,0831.2,5.01,0.00,27.6,27.0,00.0,36.6,29.5,10.4,0000.0,0010.09,0003.69,0002.57
2021-10-21 22:07:00,,0831.2,5.00,0.00,27.6,27.1,00.0,36.6,29.5,10.6,0000.0,0011.28,0003.72,0002.61
2021-10-21 22:08:00,,0831.2,4.99,0.00,27.7,27.1,00.0,36.6,29.5,10.5,0000.0,0012.11,0003.73,0002.61
2021-10-21 22:09:00,,0831.2,5.01,0.00,27.7,27.1,00.0,36.6,29.6,10.6,0000.0,0012.30,0003.71,0002.62
2021-10-21 22:10:00,,0831.2,5.00,0.00,27.7,27.1,00.0,36.6,29.6,10.5,0000.0,0012.83,0003.74,0002.63
2021-10-21 22:11:00,,0831.2,4.99,0.00,27.7,27.1,00.0,36.7,29.6,10.4,0000.0,0012.91,0003.75,0002.65
2021-10-21 22:12:00,,0831.2,5.01,0.00,27.7,27.2,00.0,36.7,29.6,10.4,0000.0,0013.18,0003.79,0002.68
2021-10-21 22:13:00,,0831.2,4.99,0.00,27.7,27.2,00.0,36.7,29.6,10.2,0000.0,0013.02,0003.81,0002.70
2021-10-21 22:14:00,,0831.2,4.99,0.00,27.8,27.2,00.0,36.7,29.6,10.4,0000.0,0013.14,0003.81,0002.71
2021-10-21 22:15:00,,0831.2,5.00,0.00,27.8,27.2,00.0,36.7,29.7,10.3,0000.0,0013.32,0003.78,0002.73
2021-10-21 22:16:00,,0831.2,5.00,0.00,27.8,27.2,00.0,36.7,29.7,10.3,0000.0,0012.70,0003.74,0002.75
2021-10-21 22:17:00,,0831.2,5.01,0.00,27.8,27.2,00.0,36.7,29.6,10.0,0000.0,0013.05,0003.76,0002.79
2021-10-21 22:18:00,,0831.2,4.99,0.00,27.8,27.2,00.0,36.7,29.6,10.0,0000.0,0012.37,0003.75,0002.82
2021-10-21 22:19:00,,0831.2,5.02,0.00,27.8,27.3,00.0,36.8,29.7,10.0,0000.0,0011.63,0003.75,0002.85
2021-10-21 22:20:00,,0831.2,4.98,0.00,27.8,27.3,00.0,36.8,29.7,10.0,0000.0,0011.88,0003.76,0002.88
2021-10-21 22:21:00,,0831.2,5.01,0.00,27.8,27.3,00.0,36.8,29.7,10.0,0000.0,0011.49,0003.77,0002.91
2021-10-21 22:22:00,,0831.2,5.00,0.00,27.9,27.3,00.0,36.8,29.7,10.1,0000.0,0011.02,0003.78,0002.94
2021-10-21 22:23:00,,0831.2,5.01,0.00,27.9,27.3,00.0,36.8,29.7,10.1,0000.0,0011.06,0003.80,0002.97
2021-10-21 22:24:00,,0831.2,5.00,0.00,27.9,27.3,00.0,36.8,29.8,10.2,0000.0,0011.41,0003.80,0003.00
2021-10-21 22:25:00,,0831.2,4.99,0.00,27.9,27.3,00.0,36.8,29.8,10.0,0000.0,0011.64,0003.83,0003.04
2021-10-21 22:26:00,,0831.2,5.00,0.00,27.9,27.4,00.0,36.8,29.8,09.9,0000.0,0011.51,0003.87,0003.06
2021-10-21 22:27:00,,0831.2,5.00,0.00,27.9,27.4,00.0,36.9,29.8,10.2,0000.0,0011.14,0003.91,0003.08
2021-10-21 22:28:00,,0831.2,5.01,0.00,28.0,27.4,00.0,36.9,29.8,10.1,0000.0,0010.77,0003.94,0003.09
2021-10-21 22:29:00,,0831.2,5.00,0.00,28.0,27.4,00.0,36.9,29.8,10.0,0000.0,0011.26,0003.96,0003.10
2021-10-21 22:30:00,,0831.2,4.99,0.00,28.0,27.4,00.0,36.9,29.9,10.1,0000.0,0010.91,0003.97,0003.12
2021-10-21 22:31:00,,0831.2,4.99,0.00,28.0,27.4,00.0,36.9,29.9,10.2,0000.0,0011.03,0004.01,0003.13
2021-10-21 22:32:00,,0831.2,5.03,0.00,28.0,27.5,00.0,36.9,29.9,10.1,0000.0,0010.99,0004.04,0003.14
2021-10-21 22:33:00,,0831.2,5.01,0.00,28.0,27.5,00.0,37.0,29.9,10.1,0000.0,0011.35,0004.09,0003.15
2021-10-21 22:34:00,,0831.2,5.01,0.00,28.0,27.5,00.0,37.0,29.9,09.8,0000.0,0011.23,0004.09,0003.16
2021-10-21 22:35:00,,0831.1,5.00,0.00,28.1,27.5,00.0,37.0,29.9,09.9,0000.0,0011.31,0004.11,0003.17
2021-10-21 22:36:00,,0831.1,5.00,0.00,28.1,27.5,00.0,37.0,29.9,10.0,0000.0,0010.51,0004.06,0003.15
2021-10-21 22:37:00,,0831.0,5.00,0.00,28.1,27.5,00.0,37.0,29.9,09.9,0000.0,0010.69,0004.07,0003.15
2021-10-21 22:38:00,,0831.0,5.00,0.00,28.1,27.5,00.0,37.0,29.9,09.9,0000.0,0011.44,0004.06,0003.14
2021-10-21 22:39:00,,0831.0,5.00,0.00,28.1,27.5,00.0,37.0,29.9,09.8,0000.0,0011.61,0004.05,0003.15
2021-10-21 22:40:00,,0831.0,5.00,0.00,28.1,27.5,00.0,37.0,29.9,10.0,0000.0,0011.24,0004.03,0003.14
2021-10-21 22:41:00,,0831.0,4.99,0.00,28.1,27.5,00.0,37.0,29.9,10.1,0000.0,0011.33,0004.03,0003.13
2021-10-21 22:42:00,,0831.1,5.00,0.00,28.1,27.5,00.0,37.0,29.9,10.1,0000.0,0011.42,0004.03,0003.13
2021-10-21 22:43:00,,0831.0,5.01,0.00,28.1,27.5,00.0,37.1,29.9,10.0,0000.0,0012.37,0004.02,0003.11
2021-10-21 22:44:00,,0831.1,4.99,0.00,28.1,27.5,00.0,37.1,29.9,10.0,0000.0,0012.89,0004.00,0003.09
2021-10-21 22:45:00,,0831.1,5.01,0.00,28.1,27.5,00.0,37.1,29.9,10.1,0000.0,0012.82,0004.00,0003.06
2021-10-21 22:46:00,,0831.1,4.99,0.00,28.1,27.5,00.0,37.1,29.9,10.1,0000.0,0012.83,0004.01,0003.05
2021-10-21 22:47:00,,0831.0,5.00,0.00,28.1,27.5,00.0,37.1,30.0,10.0,0000.0,0013.22,0004.03,0003.06
2021-10-21 22:48:00,,0831.0,5.01,0.00,28.2,27.6,00.0,37.1,30.0,10.1,0000.0,0013.04,0004.05,0003.08
2021-10-21 22:49:00,,0831.0,5.00,0.00,28.2,27.6,00.0,37.1,30.0,10.2,0000.0,0012.15,0004.06,0003.11
2021-10-21 22:50:00,,0831.0,5.00,0.00,28.2,27.6,00.0,37.1,30.0,10.2,0000.0,0012.25,0004.05,0003.11
2021-10-21 22:51:00,,0831.0,4.99,0.00,28.2,27.6,00.0,37.1,30.1,10.3,0000.0,0012.74,0004.02,0003.11
2021-10-21 22:52:00,,0831.0,5.01,0.00,28.2,27.6,00.0,37.1,30.0,10.4,0000.0,0012.71,0004.05,0003.12
2021-10-21 22:53:00,,0831.0,5.00,0.00,28.2,27.6,00.0,37.1,30.1,10.5,0000.0,0012.50,0004.07,0003.12
2021-10-21 22:54:00,,0831.0,4.99,0.00,28.2,27.7,00.0,37.2,30.1,10.5,0000.0,0011.69,0004.05,0003.13
2021-10-21 22:55:00,,0831.0,4.98,0.00,28.3,27.7,00.0,37.2,30.1,10.4,0000.0,0011.34,0004.04,0003.13
2021-10-21 22:56:00,,0830.9,5.00,0.00,28.3,27.7,00.0,37.2,30.1,10.4,0000.0,0011.61,0004.06,0003.14
2021-10-21 22:57:00,,0830.9,5.00,0.00,28.3,27.7,00.0,37.2,30.1,10.4,0000.0,0012.03,0004.05,0003.15
2021-10-21 22:58:00,,0830.9,5.01,0.00,28.3,27.7,00.0,37.2,30.1,10.3,0000.0,0011.49,0004.08,0003.16
2021-10-21 22:59:00,,0830.9,4.98,0.00,28.3,27.7,00.0,37.2,30.1,10.4,0000.0,0012.52,0004.07,0003.15
